User: anonymous   Login
Location: Mohawk View
(42.7837°N, 73.7885°W)
Time: 01:50:37
(UTC+00:00)
Language:

FALCON 9 DEB - Orbit

View from above orbital plane
View from above orbital plane
View from above satellite
View from above satellite

Ground track
Ground track

The orbit data is extracted from the following two-line orbital elements,

1 46085U 20055BL  21268.07736945  .00033142  00000-0  29433-3 0  9992
2 46085  53.0092  67.7711 0008439 212.0310 148.0193 15.68214020 69275
Epoch (UTC): 25 September 2021 01:51:24
Eccentricity: 0.0008439
inclination: 53.0092°
perigee height: 358 km
apogee height: 370 km
right ascension of ascending node: 67.7711°
argument of perigee: 212.0310°
revolutions per day: 15.68214020
mean anomaly at epoch: 148.0193°
orbit number at epoch: 6927

The dashed part of the orbit path shows where the satellite is in the earth's shadow,  

DLR